This demonstration page uses our WeatherBlox Daily Observations layout. Learn more.

Left ArrowRight Arrow

Hourly Observations for February 17, 2023

Temp ( °F °C ) Dew Point ( °F °C ) Humidity (%) Winds ( mph kmh ) Pressure ( in mb ) Visibility ( mi km ) Precip ( " mm )
12:53 am 00:53 Clear 20 -6.7 15 -9.4 81 81 WNW 6 9 30.42 1030 10 16 0.00 0.00
1:53 am 01:53 Clear 19 -7.2 13 -10.6 77 77 WNW 7 11 30.43 1030 10 16 0.00 0.00
2:53 am 02:53 Clear 19 -7.2 12 -11.1 74 74 WNW 7 11 30.43 1031 10 16 0.00 0.00
3:53 am 03:53 Clear 19 -7.2 13 -10.6 77 77 WNW 5 7 30.42 1030 10 16 0.00 0.00
4:53 am 04:53 Clear 16 -8.9 12 -11.1 84 84 WSW 3 6 30.43 1031 10 16 0.00 0.00
5:53 am 05:53 Clear 15 -9.4 10 -12.2 80 80 SSW 3 6 30.43 1031 10 16 0.00 0.00
6:53 am 06:53 Clear 15 -9.4 10 -12.2 80 80 SSW 3 6 30.43 1031 10 16 0.00 0.00
7:53 am 07:53 Sunny 15 -9.4 11 -11.7 83 83 SSW 6 9 30.45 1031 10 16 0.00 0.00
8:53 am 08:53 Sunny 24 -4.4 17 -8.3 74 74 SW 6 9 30.45 1031 10 16 0.00 0.00
9:53 am 09:53 Sunny 30 -1.1 17 -8.3 58 58 SW 7 11 30.46 1031 10 16 0.00 0.00
10:53 am 10:53 Sunny 35 1.7 16 -8.9 45 45 SW 7 11 30.45 1031 10 16 0.00 0.00
11:53 am 11:53 Sunny 40 4.4 14 -10 34 34 WSW 9 15 30.44 1031 10 16 0.00 0.00
12:53 pm 12:53 Sunny 43 6.1 16 -8.9 33 33 SW 14 22 30.41 1030 10 16 0.00 0.00
1:53 pm 13:53 Sunny 46 7.8 14 -10 27 27 SW 14 22 30.38 1029 10 16 0.00 0.00
2:53 pm 14:53 Sunny 48 8.9 13 -10.6 24 24 SSW 18 30 30.37 1028 10 16 0.00 0.00
3:53 pm 15:53 Sunny 48 8.9 12 -11.1 23 23 SSW 15 24 30.36 1028 10 16 0.00 0.00
4:53 pm 16:53 Sunny 47 8.3 11 -11.7 23 23 SSW 15 24 30.35 1028 10 16 0.00 0.00
5:53 pm 17:53 Sunny 43 6.1 12 -11.1 28 28 SSW 10 17 30.35 1028 10 16 0.00 0.00
6:53 pm 18:53 Clear 35 1.7 12 -11.1 38 38 S 8 13 30.35 1028 10 16 0.00 0.00
7:53 pm 19:53 Clear 32 0 15 -9.4 49 49 S 8 13 30.35 1028 10 16 0.00 0.00
8:53 pm 20:53 Clear 30 -1.1 16 -8.9 55 55 S 9 15 30.35 1028 10 16 0.00 0.00
9:53 pm 21:53 Clear 30 -1.1 18 -7.8 60 60 S 12 19 30.35 1028 10 16 0.00 0.00
10:53 pm 22:53 Mostly Clear 31 -0.6 19 -7.2 61 61 S 12 19 30.34 1027 10 16 0.00 0.00
11:53 pm 23:53 Partly Cloudy 31 -0.6 19 -7.2 61 61 SSW 10 17 30.32 1027 10 16 0.00 0.00

Powered by AerisWeather